SCP
0 0 -0 0 0 1 1 1 2 3 5 5 4 3 3 3 3 3 2 2 2 2 1 2 1 0 0 0 0 0 0 0 0 1 0 0 0 0 0 0 0 0 0
0 0 0 0 0 0 1 1 1 1 1 2 4 4 3 3 5 4 3 2 3 3 3 2 1 1 2 2 0 1 0 0 0 1 0 0 0 0 0 0 0 0 0
0 0 0 0 0 0 0 1 1 1 1 1 1 4 2 4 5 5 4 2 3 4 3 3 3 2 3 1 1 1 0 0 0 0 1 0 0 0 0 0 0 0 0
0 0 0 0 0 0 0 0 1 1 1 1 1 2 3 2 5 4 4 4 4 6 5 5 4 4 3 3 2 3 2 1 1 0 1 0 0 0 0 0 0 0 0
0 0 0 0 0 0 0 0 0 0 0 0 1 1 1 3 4 4 1 4 6 5 7 4 0 0 0 0 0 1 2 1 0 0 0 0 0 0 0 0 0 0 0
0 0 0 0 0 0 0 0 0 0 0 0 0 0 0 2 0 0 0 6 7 5 6 1 0 0 0 0 0 0 0 1 1 0 0 0 1 0 0 0 0 0 0
0 0 0 0 0 0 0 0 0 0 0 0 0 0 0 1 0 0 0 1 4 4 3 2 0 0 0 0 0 0 0 0 0 1 1 1 0 0 0 0 0 0 0
0 0 0 0 0 0 0 0 0 0 0 0 0 0 0 0 0 0 0 0 1 2 2 2 2 0 0 0 0 0 0 0 0 0 2 1 1 0 0 0 0 0 0
0 0 0 0 0 0 0 0 0 0 0 0 0 0 0 0 0 0 0 0 0 1 1 3 1 1 0 0 0 0 0 0 0 0 0 0 0 0 0 0 0 0 0
0 0 0 0 0 0 0 0 0 0 0 0 0 0 0 0 0 0 0 0 0 0 1 1 1 1 0 0 0 0 0 0 0 0 0 0 0 0 0 0 0 0 0
0 0 0 0 0 0 0 0 0 0 0 0 0 0 1 1 1 0 0 0 0 1 1 1 1 0 0 0 0 0 0 0 0 0 0 0 0 0 0 0 0 0 0
0 0 0 0 0 0 0 0 0 0 0 0 0 0 0 1 0 0 0 0 0 0 0 1 0 0 0 0 0 0 0 0 0 1 1 0 0 0 0 0 0 0 0
0 0 0 0 0 0 0 0 0 0 0 0 0 0 0 0 0 0 0 0 0 0 1 0 0 0 0 0 0 0 0 0 0 1 1 1 0 0 0 0 0 0 0
0 0 0 0 0 0 0 0 0 0 0 0 0 0 0 0 0 0 0 0 0 0 0 0 0 0 0 0 0 0 0 0 0 1 0 1 0 0 0 0 0 0 0
0 0 0 0 0 0 0 0 0 0 0 0 0 0 0 0 0 0 0 0 0 0 0 0 0 0 0 0 0 0 0 0 0 1 1 1 0 0 0 0 0 0 0
0 0 0 0 0 0 0 0 0 0 0 0 -0 -0 0 0 0 0 0 0 0 0 0 0 0 0 0 0 0 0 0 0 0 0 0 1 0 0 0 0 0 0 0
0 0 0 0 0 0 0 0 0 0 0 0 -0 -0 -0 -0 0 0 0 0 0 0 0 0 0 0 0 0 0 0 0 0 0 0 0 0 0 0 0 0 0 0 0
0 0 0 0 0 0 0 0 0 0 0 0 0 0 -0 -0 -0 0 0 0 0 0 0 0 0 0 0 0 0 0 0 0 0 0 0 0 0 0 0 0 0 0 0
0 0 0 0 0 0 0 0 0 0 0 0 0 0 0 0 -0 0 -0 0 0 0 0 0 0 0 0 0 0 0 0 0 0 0 0 0 0 0 0 0 0 0 0
0 0 0 0 0 0 0 0 0 0 0 0 0 0 0 0 0 -0 -0 -0 0 0 0 0 0 0 0 0 0 0 0 0 0 0 0 0 0 0 0 0 0 0 0
0 0 0 0 0 0 0 0 0 0 0 0 -0 -0 -0 -0 0 0 -0 -0 -0 0 0 0 0 0 0 0 0 0 0 0 0 0 0 0 0 0 0 0 0 0 0
-0 -0 0 0 0 0 0 0 0 0 0 0 0 -0 -0 -0 -0 0 0 -0 0 0 0 0 0 0 0 0 0 0 0 0 0 0 0 0 0 0 0 0 0 0 0
0 0 -0 -0 -0 -0 -0 0 0 0 0 0 0 0 0 0 -0 -0 -0 0 0 0 0 0 0 0 0 0 0 0 0 0 0 0 0 0 0 0 0 0 0 0 0
0 0 0 0 -0 0 0 0 0 0 0 0 0 0 0 0 0 0 -0 0 0 0 0 0 0 0 0 0 0 0 0 0 0 0 0 0 0 0 0 0 0 0 0
0 0 0 0 0 -0 -0 0 0 0 0 0 0 0 0 0 0 0 0 0 0 0 -0 0 0 0 -0 0 0 0 0 0 0 0 0 0 0 0 0 0 0 0 0
0 0 0 0 0 0 0 0 0 0 0 0 0 0 0 0 0 0 -0 0 -0 -0 0 0 -0 -0 -0 -0 -0 0 0 0 0 0 0 0 0 0 0 0 0 0 1
Wind_Speed_500mb
22 22 25 26 27 28 22 29 40 53 55 52 46 53 56 63 59 57 56 58 60 59 50 49 50 40 30 23 18 15 12 10 13 5 14 12 11 10 9 9 10 12 13
24 23 21 22 25 30 30 27 28 43 53 60 55 52 54 60 63 66 65 61 67 63 63 56 54 46 47 36 27 25 18 17 13 13 19 18 15 12 9 9 12 15 13
28 26 25 24 25 26 25 28 30 30 37 55 65 61 61 62 66 70 72 72 66 69 67 68 66 58 57 44 40 31 25 23 17 13 15 15 16 12 12 11 12 14 16
33 31 29 28 27 26 29 31 26 27 29 30 45 52 67 61 63 72 71 73 73 67 71 68 63 55 48 49 49 45 33 27 21 17 17 11 14 12 16 16 14 14 16
38 37 35 35 33 32 30 30 31 31 32 34 34 35 50 68 64 63 56 65 80 77 64 77 74 67 37 52 33 33 31 33 26 19 22 20 19 15 17 16 18 15 17
43 43 42 40 39 39 37 35 32 32 35 35 33 31 32 38 47 50 66 61 61 75 81 80 82 77 71 58 48 42 29 38 35 27 25 23 18 12 13 18 16 17 20
50 49 48 47 46 44 43 42 41 39 37 38 40 38 39 42 47 49 40 43 57 62 59 65 62 65 62 69 77 56 41 40 49 43 38 21 15 16 21 23 25 15 15
58 57 56 55 53 50 47 45 46 45 45 45 43 44 46 43 49 53 52 49 51 44 61 66 73 77 79 79 75 86 97 66 60 57 44 38 33 22 24 21 20 22 23
63 62 61 62 62 60 56 53 50 49 51 54 51 52 50 52 54 52 53 50 44 46 56 61 66 74 73 72 81 80 73 90 73 73 52 41 37 35 22 17 21 24 25
62 63 61 60 59 55 52 56 57 56 60 57 59 61 60 58 54 59 61 53 45 42 47 51 57 64 69 72 93 89 91 100 81 77 70 58 49 45 33 26 19 15 18
61 61 64 64 61 63 68 67 65 64 70 72 69 67 65 58 55 55 61 60 54 54 39 42 48 57 67 60 80 98 91 85 87 72 61 63 55 51 43 38 29 20 22
58 58 64 70 71 68 67 66 68 69 67 62 62 69 68 68 69 64 66 64 58 55 61 45 40 38 62 67 82 103 97 78 82 77 60 50 48 42 31 26 27 23 27
56 59 61 65 67 64 70 68 79 82 72 71 71 71 65 67 64 66 66 57 52 57 58 51 55 42 40 66 90 100 100 86 89 82 70 57 52 47 32 31 21 34 42
66 68 69 70 67 64 67 63 76 65 62 78 61 67 61 62 47 57 61 65 60 44 56 51 52 41 41 37 66 79 100 53 77 84 60 57 49 47 44 34 28 32 37
65 69 72 72 70 66 63 68 70 73 69 70 61 55 58 46 49 47 49 44 38 45 49 57 50 52 49 54 52 65 93 111 58 59 59 51 50 48 44 41 37 37 32
67 66 68 68 69 70 67 66 68 69 74 76 79 80 71 55 51 33 26 46 46 48 45 45 40 45 55 54 60 71 85 73 68 66 59 53 48 45 46 44 39 41 37
64 67 67 66 68 63 63 66 65 56 60 68 75 81 83 88 78 57 40 30 28 37 38 40 52 42 36 53 56 61 56 62 82 76 73 65 61 55 56 50 47 35 33
61 63 59 60 58 57 56 61 63 62 63 53 60 63 71 79 90 83 75 64 51 46 46 47 48 54 50 42 43 48 56 64 55 53 64 59 60 58 53 53 52 50 38
57 59 54 53 53 52 52 55 56 61 61 63 55 52 61 61 68 83 84 77 65 64 57 59 56 51 58 56 59 50 50 54 53 48 51 63 57 55 53 55 56 61 52
58 54 48 47 48 48 47 48 51 54 57 62 58 62 52 47 56 65 70 76 74 76 72 68 61 62 62 63 63 58 58 59 52 58 63 63 68 70 62 59 53 60 67
52 48 45 45 44 44 43 44 47 50 52 54 54 53 54 58 54 58 61 65 75 71 76 76 72 63 57 68 63 62 63 59 68 67 71 68 70 70 67 61 61 63 59
48 46 44 44 43 40 39 41 42 43 46 49 52 51 53 58 61 65 64 66 64 67 71 72 79 70 66 59 67 68 68 67 65 64 65 69 61 64 61 65 65 65 59
48 49 48 46 43 41 39 38 39 39 41 44 44 47 52 54 58 62 67 60 59 69 71 75 72 70 73 73 67 60 68 64 58 53 60 59 61 62 62 63 67 67 61
57 56 55 53 50 48 45 42 39 38 38 39 43 46 43 47 56 58 61 63 69 67 71 70 73 78 75 79 66 70 77 65 58 63 54 58 63 60 61 63 68 67 62
60 59 61 63 58 52 52 49 46 43 40 38 39 37 36 37 41 50 54 55 61 64 68 70 68 70 66 73 74 68 67 73 85 65 61 61 54 60 70 54 59 62 64
72 66 65 69 69 58 56 55 50 45 42 40 39 38 39 37 37 37 41 47 53 58 68 70 69 67 70 67 63 70 75 76 71 74 77 63 67 64 54 67 56 51 51
Wind_Direction_500mb
347 345 339 341 345 343 315 264 255 254 235 229 230 232 225 222 220 221 208 209 222 209 208 215 227 205 214 217 217 218 225 238 257 120 279 297 294 294 286 289 286 302 313
334 336 332 329 325 326 331 329 300 259 248 242 231 234 229 224 220 221 220 214 218 216 211 208 224 217 211 207 214 216 222 227 233 256 261 284 279 280 283 279 285 295 291
323 325 322 322 318 312 311 316 321 320 270 247 243 230 235 225 226 224 223 220 217 221 216 215 218 219 223 212 210 218 217 224 234 240 242 251 269 272 276 272 266 285 296
310 312 310 309 309 306 307 304 304 304 308 298 258 250 235 242 224 227 228 225 223 221 219 214 216 216 219 224 227 209 206 212 224 221 234 231 273 260 265 271 267 268 283
301 299 299 300 300 299 298 296 299 297 296 300 304 293 248 237 235 232 237 222 223 223 220 222 223 218 216 195 231 236 230 219 225 224 232 224 218 271 285 275 261 260 279
298 297 296 295 292 290 290 290 291 290 290 289 279 287 284 274 260 258 243 238 237 236 231 233 232 225 222 219 233 249 235 241 227 226 236 246 215 242 239 259 267 251 257
295 293 292 291 290 289 286 284 282 282 282 282 282 278 272 271 275 273 271 254 248 244 243 245 244 234 246 237 221 236 238 240 251 232 225 233 232 221 233 243 267 252 253
290 289 288 286 285 284 283 281 280 279 278 276 274 277 277 267 269 272 273 273 267 260 244 239 243 241 235 232 230 236 250 247 247 234 233 231 240 220 221 246 237 257 251
286 286 286 285 281 278 277 277 278 280 278 272 269 268 268 273 270 265 268 271 266 260 255 234 240 249 253 245 239 225 239 239 235 234 224 230 228 228 224 210 242 241 252
288 287 292 293 291 289 287 281 277 276 276 274 270 265 263 262 267 272 260 256 256 259 249 251 233 244 253 250 233 229 235 224 222 227 226 228 231 239 238 229 233 221 234
288 287 285 287 287 286 285 279 282 278 274 271 268 264 264 257 256 261 264 263 249 249 250 251 250 240 245 246 232 230 222 222 215 218 225 222 227 235 235 231 214 216 233
287 290 286 279 278 277 276 276 269 272 272 271 269 267 260 258 253 256 263 256 253 249 242 244 239 248 249 240 231 222 225 214 216 210 216 212 213 217 219 227 216 195 231
295 292 292 289 284 286 277 274 270 261 267 264 264 269 260 254 252 252 254 259 255 252 241 240 247 248 245 243 227 212 203 212 210 205 207 203 213 220 208 198 205 213 218
298 295 295 290 287 286 277 276 269 263 264 258 261 262 266 261 257 253 242 253 248 248 235 240 240 226 227 209 197 197 200 214 205 203 195 202 211 209 203 193 239 239 221
299 297 295 292 289 286 279 275 273 264 260 256 254 254 256 261 252 258 253 232 225 238 231 222 223 218 216 215 217 200 207 219 240 204 199 198 208 209 198 209 224 242 231
297 298 297 294 291 285 280 279 273 271 264 257 250 248 250 255 253 259 237 235 229 237 234 234 231 216 215 210 205 212 208 214 220 211 208 207 202 199 200 211 209 220 216
301 299 297 292 287 282 284 278 279 275 273 264 255 249 245 251 253 250 245 243 224 234 231 233 234 222 227 224 220 213 216 209 213 217 217 210 209 212 204 210 215 214 194
309 305 302 297 292 288 280 276 276 274 270 271 262 255 250 247 249 252 252 249 248 234 230 236 230 227 215 212 217 217 220 217 223 218 205 216 209 215 207 206 210 219 202
314 314 311 304 298 291 285 280 272 268 268 266 262 265 255 248 244 245 247 249 242 238 235 238 236 233 228 222 220 221 229 234 220 224 233 227 223 228 214 215 212 217 211
327 325 319 312 308 304 296 285 278 274 268 263 261 259 254 255 250 244 239 238 236 233 232 233 235 235 229 229 227 220 217 216 221 222 215 229 226 225 220 218 214 214 208
333 331 333 327 320 313 303 295 285 277 271 265 261 258 254 244 242 246 244 239 236 231 231 230 230 228 230 227 226 225 220 218 217 217 213 220 216 217 215 216 216 218 209
350 349 343 338 333 324 312 304 295 288 280 270 266 263 257 249 247 239 242 239 231 232 233 233 230 227 222 224 223 224 221 216 218 214 214 214 215 217 215 217 216 216 211
359 357 355 352 347 339 330 320 308 298 290 286 276 275 265 254 248 242 236 234 234 231 233 230 228 227 226 222 225 222 214 214 215 214 211 210 214 214 216 214 216 214 212
9 7 1 357 356 353 346 336 324 309 300 288 278 283 276 257 247 243 237 232 231 236 238 235 233 230 228 222 219 223 215 213 215 216 215 217 217 216 216 216 214 214 213
8 7 5 2 355 349 347 343 334 323 313 302 289 274 275 268 256 246 243 240 233 229 231 232 232 228 223 222 220 219 219 219 216 214 214 221 221 214 215 219 215 213 211
11 7 5 5 4 358 350 343 334 326 316 307 299 283 265 254 262 255 246 238 234 232 226 225 228 229 226 218 217 220 222 224 220 216 215 219 222 218 206 214 215 213 210
Wind_Speed_850mb
22 22 25 26 27 28 22 29 40 53 55 52 46 53 56 63 59 57 56 58 60 59 50 49 50 40 30 23 18 15 12 10 13 5 14 12 11 10 9 9 10 12 13
24 23 21 22 25 30 30 27 28 43 53 60 55 52 54 60 63 66 65 61 67 63 63 56 54 46 47 36 27 25 18 17 13 13 19 18 15 12 9 9 12 15 13
28 26 25 24 25 26 25 28 30 30 37 55 65 61 61 62 66 70 72 72 66 69 67 68 66 58 57 44 40 31 25 23 17 13 15 15 16 12 12 11 12 14 16
33 31 29 28 27 26 29 31 26 27 29 30 45 52 67 61 63 72 71 73 73 67 71 68 63 55 48 49 49 45 33 27 21 17 17 11 14 12 16 16 14 14 16
38 37 35 35 33 32 30 30 31 31 32 34 34 35 50 68 64 63 56 65 80 77 64 77 74 67 37 52 33 33 31 33 26 19 22 20 19 15 17 16 18 15 17
43 43 42 40 39 39 37 35 32 32 35 35 33 31 32 38 47 50 66 61 61 75 81 80 82 77 71 58 48 42 29 38 35 27 25 23 18 12 13 18 16 17 20
50 49 48 47 46 44 43 42 41 39 37 38 40 38 39 42 47 49 40 43 57 62 59 65 62 65 62 69 77 56 41 40 49 43 38 21 15 16 21 23 25 15 15
58 57 56 55 53 50 47 45 46 45 45 45 43 44 46 43 49 53 52 49 51 44 61 66 73 77 79 79 75 86 97 66 60 57 44 38 33 22 24 21 20 22 23
63 62 61 62 62 60 56 53 50 49 51 54 51 52 50 52 54 52 53 50 44 46 56 61 66 74 73 72 81 80 73 90 73 73 52 41 37 35 22 17 21 24 25
62 63 61 60 59 55 52 56 57 56 60 57 59 61 60 58 54 59 61 53 45 42 47 51 57 64 69 72 93 89 91 100 81 77 70 58 49 45 33 26 19 15 18
61 61 64 64 61 63 68 67 65 64 70 72 69 67 65 58 55 55 61 60 54 54 39 42 48 57 67 60 80 98 91 85 87 72 61 63 55 51 43 38 29 20 22
58 58 64 70 71 68 67 66 68 69 67 62 62 69 68 68 69 64 66 64 58 55 61 45 40 38 62 67 82 103 97 78 82 77 60 50 48 42 31 26 27 23 27
56 59 61 65 67 64 70 68 79 82 72 71 71 71 65 67 64 66 66 57 52 57 58 51 55 42 40 66 90 100 100 86 89 82 70 57 52 47 32 31 21 34 42
66 68 69 70 67 64 67 63 76 65 62 78 61 67 61 62 47 57 61 65 60 44 56 51 52 41 41 37 66 79 100 53 77 84 60 57 49 47 44 34 28 32 37
65 69 72 72 70 66 63 68 70 73 69 70 61 55 58 46 49 47 49 44 38 45 49 57 50 52 49 54 52 65 93 111 58 59 59 51 50 48 44 41 37 37 32
67 66 68 68 69 70 67 66 68 69 74 76 79 80 71 55 51 33 26 46 46 48 45 45 40 45 55 54 60 71 85 73 68 66 59 53 48 45 46 44 39 41 37
64 67 67 66 68 63 63 66 65 56 60 68 75 81 83 88 78 57 40 30 28 37 38 40 52 42 36 53 56 61 56 62 82 76 73 65 61 55 56 50 47 35 33
61 63 59 60 58 57 56 61 63 62 63 53 60 63 71 79 90 83 75 64 51 46 46 47 48 54 50 42 43 48 56 64 55 53 64 59 60 58 53 53 52 50 38
57 59 54 53 53 52 52 55 56 61 61 63 55 52 61 61 68 83 84 77 65 64 57 59 56 51 58 56 59 50 50 54 53 48 51 63 57 55 53 55 56 61 52
58 54 48 47 48 48 47 48 51 54 57 62 58 62 52 47 56 65 70 76 74 76 72 68 61 62 62 63 63 58 58 59 52 58 63 63 68 70 62 59 53 60 67
52 48 45 45 44 44 43 44 47 50 52 54 54 53 54 58 54 58 61 65 75 71 76 76 72 63 57 68 63 62 63 59 68 67 71 68 70 70 67 61 61 63 59
48 46 44 44 43 40 39 41 42 43 46 49 52 51 53 58 61 65 64 66 64 67 71 72 79 70 66 59 67 68 68 67 65 64 65 69 61 64 61 65 65 65 59
48 49 48 46 43 41 39 38 39 39 41 44 44 47 52 54 58 62 67 60 59 69 71 75 72 70 73 73 67 60 68 64 58 53 60 59 61 62 62 63 67 67 61
57 56 55 53 50 48 45 42 39 38 38 39 43 46 43 47 56 58 61 63 69 67 71 70 73 78 75 79 66 70 77 65 58 63 54 58 63 60 61 63 68 67 62
60 59 61 63 58 52 52 49 46 43 40 38 39 37 36 37 41 50 54 55 61 64 68 70 68 70 66 73 74 68 67 73 85 65 61 61 54 60 70 54 59 62 64
72 66 65 69 69 58 56 55 50 45 42 40 39 38 39 37 37 37 41 47 53 58 68 70 69 67 70 67 63 70 75 76 71 74 77 63 67 64 54 67 56 51 51
Wind_Direction_850mb
347 345 339 341 345 343 315 264 255 254 235 229 230 232 225 222 220 221 208 209 222 209 208 215 227 205 214 217 217 218 225 238 257 120 279 297 294 294 286 289 286 302 313
334 336 332 329 325 326 331 329 300 259 248 242 231 234 229 224 220 221 220 214 218 216 211 208 224 217 211 207 214 216 222 227 233 256 261 284 279 280 283 279 285 295 291
323 325 322 322 318 312 311 316 321 320 270 247 243 230 235 225 226 224 223 220 217 221 216 215 218 219 223 212 210 218 217 224 234 240 242 251 269 272 276 272 266 285 296
310 312 310 309 309 306 307 304 304 304 308 298 258 250 235 242 224 227 228 225 223 221 219 214 216 216 219 224 227 209 206 212 224 221 234 231 273 260 265 271 267 268 283
301 299 299 300 300 299 298 296 299 297 296 300 304 293 248 237 235 232 237 222 223 223 220 222 223 218 216 195 231 236 230 219 225 224 232 224 218 271 285 275 261 260 279
298 297 296 295 292 290 290 290 291 290 290 289 279 287 284 274 260 258 243 238 237 236 231 233 232 225 222 219 233 249 235 241 227 226 236 246 215 242 239 259 267 251 257
295 293 292 291 290 289 286 284 282 282 282 282 282 278 272 271 275 273 271 254 248 244 243 245 244 234 246 237 221 236 238 240 251 232 225 233 232 221 233 243 267 252 253
290 289 288 286 285 284 283 281 280 279 278 276 274 277 277 267 269 272 273 273 267 260 244 239 243 241 235 232 230 236 250 247 247 234 233 231 240 220 221 246 237 257 251
286 286 286 285 281 278 277 277 278 280 278 272 269 268 268 273 270 265 268 271 266 260 255 234 240 249 253 245 239 225 239 239 235 234 224 230 228 228 224 210 242 241 252
288 287 292 293 291 289 287 281 277 276 276 274 270 265 263 262 267 272 260 256 256 259 249 251 233 244 253 250 233 229 235 224 222 227 226 228 231 239 238 229 233 221 234
288 287 285 287 287 286 285 279 282 278 274 271 268 264 264 257 256 261 264 263 249 249 250 251 250 240 245 246 232 230 222 222 215 218 225 222 227 235 235 231 214 216 233
287 290 286 279 278 277 276 276 269 272 272 271 269 267 260 258 253 256 263 256 253 249 242 244 239 248 249 240 231 222 225 214 216 210 216 212 213 217 219 227 216 195 231
295 292 292 289 284 286 277 274 270 261 267 264 264 269 260 254 252 252 254 259 255 252 241 240 247 248 245 243 227 212 203 212 210 205 207 203 213 220 208 198 205 213 218
298 295 295 290 287 286 277 276 269 263 264 258 261 262 266 261 257 253 242 253 248 248 235 240 240 226 227 209 197 197 200 214 205 203 195 202 211 209 203 193 239 239 221
299 297 295 292 289 286 279 275 273 264 260 256 254 254 256 261 252 258 253 232 225 238 231 222 223 218 216 215 217 200 207 219 240 204 199 198 208 209 198 209 224 242 231
297 298 297 294 291 285 280 279 273 271 264 257 250 248 250 255 253 259 237 235 229 237 234 234 231 216 215 210 205 212 208 214 220 211 208 207 202 199 200 211 209 220 216
301 299 297 292 287 282 284 278 279 275 273 264 255 249 245 251 253 250 245 243 224 234 231 233 234 222 227 224 220 213 216 209 213 217 217 210 209 212 204 210 215 214 194
309 305 302 297 292 288 280 276 276 274 270 271 262 255 250 247 249 252 252 249 248 234 230 236 230 227 215 212 217 217 220 217 223 218 205 216 209 215 207 206 210 219 202
314 314 311 304 298 291 285 280 272 268 268 266 262 265 255 248 244 245 247 249 242 238 235 238 236 233 228 222 220 221 229 234 220 224 233 227 223 228 214 215 212 217 211
327 325 319 312 308 304 296 285 278 274 268 263 261 259 254 255 250 244 239 238 236 233 232 233 235 235 229 229 227 220 217 216 221 222 215 229 226 225 220 218 214 214 208
333 331 333 327 320 313 303 295 285 277 271 265 261 258 254 244 242 246 244 239 236 231 231 230 230 228 230 227 226 225 220 218 217 217 213 220 216 217 215 216 216 218 209
350 349 343 338 333 324 312 304 295 288 280 270 266 263 257 249 247 239 242 239 231 232 233 233 230 227 222 224 223 224 221 216 218 214 214 214 215 217 215 217 216 216 211
359 357 355 352 347 339 330 320 308 298 290 286 276 275 265 254 248 242 236 234 234 231 233 230 228 227 226 222 225 222 214 214 215 214 211 210 214 214 216 214 216 214 212
9 7 1 357 356 353 346 336 324 309 300 288 278 283 276 257 247 243 237 232 231 236 238 235 233 230 228 222 219 223 215 213 215 216 215 217 217 216 216 216 214 214 213
8 7 5 2 355 349 347 343 334 323 313 302 289 274 275 268 256 246 243 240 233 229 231 232 232 228 223 222 220 219 219 219 216 214 214 221 221 214 215 219 215 213 211
11 7 5 5 4 358 350 343 334 326 316 307 299 283 265 254 262 255 246 238 234 232 226 225 228 229 226 218 217 220 222 224 220 216 215 219 222 218 206 214 215 213 210